This is the latest recevied weather packets stored in our database for station/object W3AJR. If no packets are shown the sender has not sent any weather packets the latest 10 day(s).
| Time | Temp. | Humidity | Pressure | Rain* | Wind** | Luminosity | Snow |
|---|---|---|---|---|---|---|---|
| 1777712980 | 10.56° C | 75% | 1012.4 hPa | 0 mm | - | 0 W/m² | - |
| 1777712677 | 10.56° C | 74% | 1012.4 hPa | 0 mm | - | 0 W/m² | - |
| 1777712373 | 10.56° C | 73% | 1012.3 hPa | 0 mm | - | 0 W/m² | - |
| 1777712070 | 10.56° C | 72% | 1012.1 hPa | 0 mm | - | 0 W/m² | - |
| 1777711767 | 11.11° C | 70% | 1012.2 hPa | 0 mm | - | 0 W/m² | - |
| 1777711464 | 10.56° C | 71% | 1012.3 hPa | 0 mm | - | 0 W/m² | - |
| 1777711159 | 10.56° C | 74% | 1012.3 hPa | 0 mm | - | 0 W/m² | - |
| 1777710856 | 10.56° C | 74% | 1012.4 hPa | 0 mm | - | 0 W/m² | - |
| 1777710553 | 10° C | 77% | 1012.2 hPa | 0 mm | - | 0 W/m² | - |
| 1777710250 | 10° C | 80% | 1012.1 hPa | 0 mm | - | 0 W/m² | - |
| 1777709947 | 9.44° C | 85% | 1012.4 hPa | 0 mm | - | 0 W/m² | - |
| 1777709645 | 10° C | 94% | 1012.3 hPa | 0 mm | - | 0 W/m² | - |
| 1777709342 | 10° C | 95% | 1012.4 hPa | 0 mm | - | 0 W/m² | - |
| 1777709039 | 10° C | 94% | 1012.1 hPa | 0 mm | - | 0 W/m² | - |
| 1777708736 | 9.44° C | 93% | 1012.2 hPa | 0 mm | - | 0 W/m² | - |
| 1777708434 | 9.44° C | 96% | 1011.9 hPa | 0 mm | - | 0 W/m² | - |
| 1777708132 | 10° C | 97% | 1012 hPa | 0 mm | - | 0 W/m² | - |
| 1777707829 | 10° C | 98% | 1012 hPa | 0 mm | - | 0 W/m² | - |
| 1777707525 | 10° C | 98% | 1012.1 hPa | 0 mm | - | 0 W/m² | - |
| 1777707221 | 10° C | 98% | 1011.9 hPa | 0 mm | - | 0 W/m² | - |
| 1777706919 | 10° C | 98% | 1012 hPa | 0 mm | - | 0 W/m² | - |
| 1777706617 | 10° C | 98% | 1011.9 hPa | 0 mm | - | 0 W/m² | - |
| 1777706314 | 10° C | 98% | 1011.9 hPa | 0 mm | - | 0 W/m² | - |
| 1777706012 | 10° C | 99% | 1012.1 hPa | 0 mm | - | 0 W/m² | - |
| 1777705710 | 10° C | 98% | 1012.2 hPa | 0 mm | - | 0 W/m² | - |
* Rain latest hour (hover to see other rain measurements)
** Current wind speed in m/s (hover to see current wind gust speed)